KM6VME Weather Reports


Display with metric or nautical units.
time (UTC)temp
F
wind
direction
speed
MPH
gust
MPH
rain 1hr
in
rain 24hr
in
rain mn
in
humidity
%
barometer
mb
20220523114626 58 288 0.0 0.0 0.00 0.00 0.00 89 1013.7
20220523114125 58 287 0.0 0.0 0.00 0.00 0.00 89 1013.7
20220523113623 58 281 0.0 0.0 0.00 0.00 0.00 89 1013.6
20220523113123 58 281 0.0 0.0 0.00 0.00 0.00 89 1013.5
20220523112622 58 297 0.0 0.0 0.00 0.00 0.00 89 1013.8
20220523112121 58 293 0.0 0.0 0.00 0.00 0.00 89 1013.9
20220523111619 58 292 0.0 0.0 0.00 0.00 0.00 89 1013.5
20220523111118 57 292 0.0 0.0 0.00 0.00 0.00 89 1013.5
20220523110616 57 293 0.0 0.0 0.00 0.00 0.00 89 1013.8
20220523110117 57 284 0.0 1.0 0.00 0.00 0.00 89 1013.9
20220523105615 57 279 0.0 0.0 0.00 0.00 0.00 89 1013.8
20220523105114 57 278 0.0 0.0 0.00 0.00 0.00 89 1013.8
20220523104614 57 278 0.0 0.0 0.00 0.00 0.00 89 1013.9
20220523104112 57 278 0.0 0.0 0.00 0.00 0.00 89 1014.1
20220523103611 57 278 0.0 0.0 0.00 0.00 0.00 89 1014.2
20220523103110 57 278 0.0 0.0 0.00 0.00 0.00 89 1014.3
20220523102608 57 307 0.0 0.0 0.00 0.00 0.00 89 1014.2
20220523102107 57 273 0.0 0.0 0.00 0.00 0.00 89 1013.9
20220523101606 57 274 0.0 0.0 0.00 0.00 0.00 89 1014.1
20220523101105 57 270 0.0 0.0 0.00 0.00 0.00 90 1014.1
20220523100603 56 246 0.0 0.0 0.00 0.00 0.00 90 1013.9
20220523100101 57 246 0.0 0.0 0.00 0.00 0.00 90 1014.1
20220523095600 57 247 0.0 0.0 0.00 0.00 0.00 90 1014.4
20220523095059 57 247 0.0 0.0 0.00 0.00 0.00 90 1014.2
20220523094557 57 263 0.0 0.0 0.00 0.00 0.00 89 1014.3
20220523094056 57 247 0.0 0.0 0.00 0.00 0.00 90 1014.4
20220523093555 56 263 0.0 0.0 0.00 0.00 0.00 90 1014.5
20220523093055 56 317 1.0 1.0 0.00 0.00 0.00 90 1014.5
20220523092554 56 274 0.0 0.0 0.00 0.00 0.00 90 1014.3
20220523092053 56 279 0.0 1.0 0.00 0.00 0.00 90 1014.6
20220523091551 55 250 0.0 0.0 0.00 0.00 0.00 91 1014.7
20220523091050 55 251 0.0 0.0 0.00 0.00 0.00 92 1014.5
20220523090548 55 247 0.0 0.0 0.00 0.00 0.00 93 1014.6
20220523090047 55 246 0.0 0.0 0.00 0.00 0.00 93 1014.8
20220523085546 55 246 0.0 0.0 0.00 0.00 0.00 93 1014.8
20220523085045 54 235 0.0 0.0 0.00 0.00 0.00 94 1014.8
20220523084544 54 216 0.0 0.0 0.00 0.00 0.00 95 1014.8
20220523084043 54 215 0.0 0.0 0.00 0.00 0.00 95 1014.8
20220523083541 53 216 0.0 0.0 0.00 0.00 0.00 95 1014.9
20220523083040 53 215 0.0 0.0 0.00 0.00 0.00 95 1015.2
20220523082539 53 215 0.0 0.0 0.00 0.00 0.00 95 1015.1
20220523082040 53 215 0.0 0.0 0.00 0.00 0.00 95 1015.2
20220523081539 53 215 0.0 0.0 0.00 0.00 0.00 94 1014.9
20220523081037 53 215 0.0 0.0 0.00 0.00 0.00 94 1014.9
20220523080536 53 215 0.0 0.0 0.00 0.00 0.00 94 1015.1
20220523080035 54 215 0.0 0.0 0.00 0.00 0.00 94 1015.2
20220523075533 54 215 0.0 0.0 0.00 0.00 0.00 94 1015.1
20220523075032 54 216 0.0 0.0 0.00 0.00 0.00 93 1015.5
20220523074531 54 211 0.0 0.0 0.00 0.00 0.00 93 1015.4
20220523074030 54 211 0.0 0.0 0.00 0.00 0.00 93 1015.4
20220523073529 54 188 0.0 0.0 0.00 0.00 0.00 93 1015.2
20220523073027 55 215 0.0 0.0 0.00 0.00 0.00 93 1015.4
20220523072526 55 214 0.0 0.0 0.00 0.00 0.00 93 1015.2
20220523072024 55 253 0.0 0.0 0.00 0.00 0.00 93 1015.4
20220523071523 55 344 0.0 0.0 0.00 0.00 0.00 92 1015.6
20220523071022 55 265 0.0 0.0 0.00 0.00 0.00 92 1015.6
20220523070521 55 258 0.0 0.0 0.00 0.00 0.00 92 1015.7
20220523070019 55 338 0.0 1.0 0.00 0.00 0.00 92 1015.7
20220523065519 55 306 0.0 0.0 0.00 0.00 0.00 91 1015.6
20220523065018 55 305 0.0 0.0 0.00 0.00 0.00 91 1015.8
20220523064518 55 249 0.0 0.0 0.00 0.00 0.00 91 1015.7
20220523064017 56 266 0.0 0.0 0.00 0.00 0.00 90 1015.9
20220523063516 56 283 0.0 0.0 0.00 0.00 0.00 90 1015.9
20220523063015 56 329 1.0 1.0 0.00 0.00 0.00 91 1015.5
20220523062514 56 276 0.0 0.0 0.00 0.00 0.00 90 1015.8
20220523062013 56 245 0.0 0.0 0.00 0.00 0.00 90 1015.6
20220523061513 56 275 0.0 0.0 0.00 0.00 0.00 90 1015.6
20220523061014 56 258 0.0 0.0 0.00 0.00 0.00 90 1015.9
20220523060513 56 261 0.0 0.0 0.00 0.00 0.00 89 1015.8
20220523060012 56 272 0.0 0.0 0.00 0.00 0.00 89 1015.9
20220523055510 56 346 1.0 1.0 0.00 0.00 0.00 88 1015.9
20220523055008 57 268 0.0 0.0 0.00 0.00 0.00 88 1015.9
20220523054507 57 297 0.0 0.0 0.00 0.00 0.00 88 1016.2
20220523054007 57 238 0.0 0.0 0.00 0.00 0.00 87 1015.9
20220523053506 57 272 0.0 0.0 0.00 0.00 0.00 87 1015.8
20220523053004 57 273 0.0 0.0 0.00 0.00 0.00 87 1016.1
20220523052503 57 268 0.0 0.0 0.00 0.00 0.00 87 1016.2
20220523052002 57 309 0.0 0.0 0.00 0.00 0.00 87 1016.1
20220523051503 57 255 1.0 1.0 0.00 0.00 0.00 86 1016.1
20220523051001 57 266 1.0 1.0 0.00 0.00 0.00 86 1016.2
20220523050459 57 277 1.0 1.0 0.00 0.00 0.00 86 1016.2
20220523050000 57 336 1.0 2.0 0.00 0.00 0.00 86 1016.2
20220523045458 58 267 1.0 1.0 0.00 0.00 0.00 86 1016.2
20220523044956 58 271 0.0 0.0 0.00 0.00 0.00 85 1016.0
20220523044455 58 273 0.0 0.0 0.00 0.00 0.00 85 1015.9
20220523043954 58 259 0.0 0.0 0.00 0.00 0.00 85 1016.1
20220523043453 58 278 0.0 0.0 0.00 0.00 0.00 85 1015.5
20220523042951 58 326 0.0 1.0 0.00 0.00 0.00 85 1015.6
20220523042451 58 218 0.0 0.0 0.00 0.00 0.00 85 1015.5
20220523041949 58 305 1.0 2.0 0.00 0.00 0.00 84 1015.4
20220523041448 58 222 1.0 1.0 0.00 0.00 0.00 83 1015.3
20220523040949 58 239 1.0 1.0 0.00 0.00 0.00 83 1015.6
20220523040447 59 272 0.0 0.0 0.00 0.00 0.00 83 1015.8
20220523035946 59 164 0.0 1.0 0.00 0.00 0.00 82 1015.7
20220523035444 59 245 0.0 0.0 0.00 0.00 0.00 82 1015.5
20220523034943 59 292 1.0 1.0 0.00 0.00 0.00 83 1015.5
20220523034442 59 164 2.0 2.0 0.00 0.00 0.00 83 1015.3
20220523033941 59 258 0.0 0.0 0.00 0.00 0.00 84 1015.3
20220523033439 59 335 1.0 2.0 0.00 0.00 0.00 84 1015.5
20220523032938 59 266 0.0 0.0 0.00 0.00 0.00 84 1015.2
20220523032437 59 3 2.0 2.0 0.00 0.00 0.00 84 1015.2
20220523031936 59 328 1.0 2.0 0.00 0.00 0.00 83 1015.2
20220523031435 59 258 0.0 0.0 0.00 0.00 0.00 83 1014.7
20220523030933 59 341 1.0 1.0 0.00 0.00 0.00 81 1015.0
20220523030433 59 324 0.0 0.0 0.00 0.00 0.00 81 1015.1
20220523025932 60 354 1.0 2.0 0.00 0.00 0.00 80 1015.2
20220523025432 60 344 1.0 2.0 0.00 0.00 0.00 80 1014.8
20220523024930 60 286 0.0 1.0 0.00 0.00 0.00 81 1014.8
20220523024429 59 285 3.0 3.0 0.00 0.00 0.00 81 1015.0
20220523023929 60 118 4.0 5.0 0.00 0.00 0.00 80 1014.9
20220523023428 60 304 2.0 3.0 0.00 0.00 0.00 81 1015.0
20220523022928 60 228 4.0 5.0 0.00 0.00 0.00 80 1014.8
20220523022426 60 300 3.0 3.0 0.00 0.00 0.00 80 1014.8
20220523021926 61 305 2.0 2.0 0.00 0.00 0.00 79 1014.8
20220523021424 61 201 2.0 3.0 0.00 0.00 0.00 80 1014.8
20220523020923 61 287 2.0 2.0 0.00 0.00 0.00 79 1015.0
20220523020422 61 278 3.0 3.0 0.00 0.00 0.00 79 1015.2
20220523015921 62 270 3.0 5.0 0.00 0.00 0.00 78 1014.9
20220523015421 62 321 2.0 2.0 0.00 0.00 0.00 78 1015.0
20220523014919 62 220 2.0 3.0 0.00 0.00 0.00 78 1015.0
20220523014418 62 278 2.0 3.0 0.00 0.00 0.00 77 1015.1
20220523013917 63 253 5.0 6.0 0.00 0.00 0.00 76 1015.0
20220523013416 64 279 1.0 2.0 0.00 0.00 0.00 74 1014.9
20220523012916 64 249 3.0 6.0 0.00 0.00 0.00 74 1014.9
20220523012414 64 290 5.0 7.0 0.00 0.00 0.00 74 1014.7
20220523011913 64 5 3.0 5.0 0.00 0.00 0.00 73 1014.5
20220523011411 65 292 4.0 6.0 0.00 0.00 0.00 71 1014.9
20220523010910 65 262 2.0 2.0 0.00 0.00 0.00 72 1014.9
20220523010409 66 318 3.0 3.0 0.00 0.00 0.00 70 1014.8
20220523005908 66 8 3.0 5.0 0.00 0.00 0.00 69 1014.9
20220523005406 66 276 3.0 3.0 0.00 0.00 0.00 68 1014.6
20220523004905 66 263 3.0 3.0 0.00 0.00 0.00 71 1014.8
20220523004403 67 239 4.0 6.0 0.00 0.00 0.00 68 1014.9
20220523003901 67 286 3.0 5.0 0.00 0.00 0.00 68 1014.9
20220523003401 67 13 4.0 6.0 0.00 0.00 0.00 68 1015.1
20220523002900 67 313 2.0 2.0 0.00 0.00 0.00 67 1014.7
20220523002359 68 328 3.0 5.0 0.00 0.00 0.00 67 1014.7
20220523001858 68 268 4.0 5.0 0.00 0.00 0.00 66 1014.6
20220523001356 69 246 2.0 5.0 0.00 0.00 0.00 66 1014.8
20220523000856 69 297 5.0 10.0 0.00 0.00 0.00 63 1015.0
20220523000355 69 262 2.0 2.0 0.00 0.00 0.00 63 1014.8
20220522235854 69 300 3.0 5.0 0.00 0.00 0.00 63 1014.9
20220522235353 71 211 1.0 1.0 0.00 0.00 0.00 59 1014.9
20220522234851 71 16 2.0 3.0 0.00 0.00 0.00 58 1014.6
20220522234351 71 276 1.0 1.0 0.00 0.00 0.00 59 1014.9
20220522233849 71 274 2.0 6.0 0.00 0.00 0.00 60 1014.5
20220522233348 71 315 2.0 3.0 0.00 0.00 0.00 60 1014.7
20220522232848 73 338 4.0 6.0 0.00 0.00 0.00 58 1014.7
20220522232346 73 193 1.0 1.0 0.00 0.00 0.00 57 1014.9
20220522231844 71 286 3.0 7.0 0.00 0.00 0.00 58 1015.0
20220522231343 72 311 3.0 5.0 0.00 0.00 0.00 56 1014.8
20220522230843 72 251 3.0 5.0 0.00 0.00 0.00 58 1014.7
20220522230342 72 269 3.0 3.0 0.00 0.00 0.00 57 1014.9
20220522225841 72 337 5.0 7.0 0.00 0.00 0.00 56 1015.1
20220522225339 72 222 1.0 2.0 0.00 0.00 0.00 56 1015.3
20220522224839 72 270 2.0 3.0 0.00 0.00 0.00 56 1015.1
20220522224338 72 284 1.0 2.0 0.00 0.00 0.00 54 1015.2
20220522223837 71 329 3.0 6.0 0.00 0.00 0.00 58 1015.1
20220522223335 72 253 2.0 2.0 0.00 0.00 0.00 58 1015.2
20220522222834 71 89 2.0 2.0 0.00 0.00 0.00 58 1015.2
20220522222333 71 298 3.0 5.0 0.00 0.00 0.00 57 1015.4
20220522221832 71 315 4.0 8.0 0.00 0.00 0.00 57 1015.2
20220522221331 70 31 3.0 3.0 0.00 0.00 0.00 59 1015.2
20220522220829 71 240 2.0 2.0 0.00 0.00 0.00 59 1015.5
20220522220327 71 291 5.0 7.0 0.00 0.00 0.00 59 1015.5
20220522215826 70 1 2.0 3.0 0.00 0.00 0.00 61 1015.6
20220522215325 72 333 4.0 6.0 0.00 0.00 0.00 58 1015.5
20220522214823 73 217 1.0 2.0 0.00 0.00 0.00 58 1015.7
20220522214322 71 308 2.0 2.0 0.00 0.00 0.00 60 1015.6
20220522213820 71 290 3.0 3.0 0.00 0.00 0.00 60 1015.5
20220522213319 72 304 3.0 3.0 0.00 0.00 0.00 57 1015.7
20220522212820 72 260 2.0 3.0 0.00 0.00 0.00 57 1015.7
20220522212318 73 271 1.0 2.0 0.00 0.00 0.00 58 1015.8
20220522211817 72 281 1.0 1.0 0.00 0.00 0.00 59 1015.5
20220522211317 71 328 1.0 2.0 0.00 0.00 0.00 58 1015.6
20220522210817 72 274 2.0 3.0 0.00 0.00 0.00 61 1016.0
20220522210316 72 319 2.0 3.0 0.00 0.00 0.00 60 1015.9
20220522205816 70 315 0.0 1.0 0.00 0.00 0.00 61 1015.8
20220522205315 71 276 3.0 5.0 0.00 0.00 0.00 61 1016.0
20220522204815 71 258 3.0 3.0 0.00 0.00 0.00 59 1016.1
20220522204315 70 269 3.0 5.0 0.00 0.00 0.00 61 1015.9
20220522203814 72 295 5.0 7.0 0.00 0.00 0.00 60 1016.2
20220522203313 71 253 3.0 5.0 0.00 0.00 0.00 61 1016.0
20220522202811 71 358 3.0 6.0 0.00 0.00 0.00 64 1016.3
20220522202311 70 284 3.0 3.0 0.00 0.00 0.00 65 1016.3
20220522201809 70 317 3.0 3.0 0.00 0.00 0.00 66 1016.3
20220522201308 70 355 2.0 3.0 0.00 0.00 0.00 65 1016.2
20220522200806 71 221 3.0 5.0 0.00 0.00 0.00 64 1016.3
20220522200305 71 246 3.0 3.0 0.00 0.00 0.00 64 1016.2
20220522195804 71 295 3.0 3.0 0.00 0.00 0.00 65 1016.4
20220522195303 70 352 4.0 6.0 0.00 0.00 0.00 67 1016.3
20220522194801 71 27 4.0 6.0 0.00 0.00 0.00 66 1016.4
20220522194302 69 260 5.0 7.0 0.00 0.00 0.00 66 1016.5
20220522193800 70 23 3.0 7.0 0.00 0.00 0.00 66 1016.6
20220522193258 69 295 2.0 2.0 0.00 0.00 0.00 67 1016.2
20220522192758 70 176 3.0 3.0 0.00 0.00 0.00 65 1016.6
20220522192256 71 257 2.0 2.0 0.00 0.00 0.00 65 1016.4
20220522191754 70 341 2.0 3.0 0.00 0.00 0.00 66 1016.4
20220522191253 71 84 4.0 6.0 0.00 0.00 0.00 63 1016.4
20220522190752 72 304 1.0 2.0 0.00 0.00 0.00 63 1016.4
20220522190250 72 16 3.0 5.0 0.00 0.00 0.00 59 1016.6
20220522185750 72 239 1.0 2.0 0.00 0.00 0.00 63 1016.4
20220522185248 71 356 1.0 1.0 0.00 0.00 0.00 65 1016.5
20220522184748 71 27 2.0 2.0 0.00 0.00 0.00 61 1016.6
20220522184246 71 8 3.0 5.0 0.00 0.00 0.00 62 1016.5
20220522183744 71 24 2.0 3.0 0.00 0.00 0.00 65 1016.6
20220522183243 71 342 3.0 3.0 0.00 0.00 0.00 63 1016.5
20220522182742 71 262 1.0 2.0 0.00 0.00 0.00 65 1016.8
20220522182241 71 23 3.0 5.0 0.00 0.00 0.00 61 1016.8
20220522181742 72 272 2.0 2.0 0.00 0.00 0.00 63 1016.6
20220522181240 72 268 1.0 1.0 0.00 0.00 0.00 63 1016.6
20220522180738 71 277 3.0 3.0 0.00 0.00 0.00 66 1016.7
20220522180238 69 3 1.0 2.0 0.00 0.00 0.00 68 1016.6
20220522175737 69 340 3.0 6.0 0.00 0.00 0.00 69 1016.5
20220522175236 69 9 3.0 5.0 0.00 0.00 0.00 69 1016.6
20220522174735 68 324 1.0 2.0 0.00 0.00 0.00 70 1016.7
20220522174235 68 260 1.0 2.0 0.00 0.00 0.00 71 1016.4
20220522173733 68 351 2.0 2.0 0.00 0.00 0.00 71 1016.7
20220522173232 68 347 2.0 3.0 0.00 0.00 0.00 71 1016.6
20220522172732 66 326 1.0 2.0 0.00 0.00 0.00 72 1016.8
20220522172231 67 300 1.0 1.0 0.00 0.00 0.00 73 1016.6
20220522171730 67 11 2.0 2.0 0.00 0.00 0.00 72 1016.6
20220522171228 67 337 1.0 1.0 0.00 0.00 0.00 73 1016.9
20220522170727 66 332 2.0 3.0 0.00 0.00 0.00 74 1016.7
20220522170228 67 345 3.0 5.0 0.00 0.00 0.00 73 1016.9
20220522165726 67 315 3.0 3.0 0.00 0.00 0.00 73 1016.6
20220522165224 67 295 1.0 2.0 0.00 0.00 0.00 73 1016.6
20220522164723 66 332 2.0 3.0 0.00 0.00 0.00 74 1016.9
20220522164222 66 240 2.0 2.0 0.00 0.00 0.00 74 1016.8
20220522163720 66 6 3.0 3.0 0.00 0.00 0.00 74 1017.0
20220522163220 66 36 3.0 3.0 0.00 0.00 0.00 75 1016.9
20220522162719 66 351 3.0 5.0 0.00 0.00 0.00 74 1017.0
20220522162217 66 32 2.0 3.0 0.00 0.00 0.00 75 1017.2
20220522161717 65 241 1.0 2.0 0.00 0.00 0.00 77 1016.9
20220522161216 65 49 1.0 1.0 0.00 0.00 0.00 77 1017.0
20220522160716 65 336 2.0 2.0 0.00 0.00 0.00 78 1017.1
20220522160214 64 270 1.0 2.0 0.00 0.00 0.00 79 1017.2
20220522155713 64 345 2.0 2.0 0.00 0.00 0.00 78 1017.1
20220522155212 64 357 2.0 2.0 0.00 0.00 0.00 78 1017.1
20220522154711 64 343 1.0 1.0 0.00 0.00 0.00 80 1017.0
20220522154210 63 355 2.0 2.0 0.00 0.00 0.00 80 1017.1
20220522153709 63 346 1.0 2.0 0.00 0.00 0.00 80 1017.1
20220522153208 62 320 3.0 3.0 0.00 0.00 0.00 81 1017.0
20220522152706 62 273 1.0 2.0 0.00 0.00 0.00 83 1017.1
20220522152205 62 267 1.0 1.0 0.00 0.00 0.00 83 1017.0
20220522151704 62 7 1.0 2.0 0.00 0.00 0.00 83 1017.4
20220522151205 62 29 2.0 3.0 0.00 0.00 0.00 83 1017.1
20220522150703 62 323 1.0 2.0 0.00 0.00 0.00 83 1016.9
20220522150202 62 323 0.0 0.0 0.00 0.00 0.00 84 1017.1
20220522145700 62 354 1.0 2.0 0.00 0.00 0.00 84 1016.9
20220522145158 62 311 1.0 2.0 0.00 0.00 0.00 84 1016.8
20220522144656 61 280 1.0 2.0 0.00 0.00 0.00 84 1016.9
20220522144155 61 344 1.0 2.0 0.00 0.00 0.00 86 1017.0
20220522143654 61 231 1.0 1.0 0.00 0.00 0.00 86 1017.0
20220522143153 60 324 2.0 2.0 0.00 0.00 0.00 86 1016.9
20220522142651 61 358 3.0 3.0 0.00 0.00 0.00 86 1016.8
20220522142148 60 314 0.0 1.0 0.00 0.00 0.00 87 1017.0
20220522141646 60 228 1.0 1.0 0.00 0.00 0.00 89 1016.7
20220522141146 59 224 1.0 1.0 0.00 0.00 0.00 89 1016.6
20220522140644 59 267 0.0 0.0 0.00 0.00 0.00 91 1017.0
20220522140143 58 38 1.0 1.0 0.00 0.00 0.00 92 1016.7
20220522135641 58 273 0.0 0.0 0.00 0.00 0.00 93 1016.7
20220522135140 57 280 0.0 0.0 0.00 0.00 0.00 93 1016.6
20220522134639 57 253 1.0 1.0 0.00 0.00 0.00 94 1016.6
20220522134138 57 335 1.0 1.0 0.00 0.00 0.00 94 1016.8
20220522133638 57 268 0.0 0.0 0.00 0.00 0.00 94 1016.6
20220522133137 57 258 1.0 1.0 0.00 0.00 0.00 94 1016.4
20220522132636 57 253 0.0 0.0 0.00 0.00 0.00 95 1016.5
20220522132135 56 251 0.0 0.0 0.00 0.00 0.00 95 1016.4
20220522131633 56 266 0.0 0.0 0.00 0.00 0.00 95 1016.4
20220522131133 56 257 0.0 1.0 0.00 0.00 0.00 95 1016.2
20220522130633 56 251 0.0 1.0 0.00 0.00 0.00 96 1016.2
20220522130132 56 248 0.0 0.0 0.00 0.00 0.00 96 1016.1
20220522125630 55 260 0.0 0.0 0.00 0.00 0.00 96 1016.2
20220522125130 55 258 0.0 0.0 0.00 0.00 0.00 96 1016.4
20220522124628 56 255 0.0 0.0 0.00 0.00 0.00 96 1016.2
20220522124127 55 272 0.0 0.0 0.00 0.00 0.00 96 1016.3
20220522123626 55 258 0.0 0.0 0.00 0.00 0.00 96 1016.2
20220522123125 55 205 0.0 0.0 0.00 0.00 0.00 96 1016.2
20220522122625 56 240 0.0 0.0 0.00 0.00 0.00 96 1016.1
20220522122124 56 249 0.0 0.0 0.00 0.00 0.00 96 1015.9
20220522121623 56 264 0.0 0.0 0.00 0.00 0.00 95 1016.1
20220522121121 56 248 0.0 0.0 0.00 0.00 0.00 95 1016.3
20220522120620 56 261 0.0 0.0 0.00 0.00 0.00 95 1016.1
20220522120119 56 260 0.0 0.0 0.00 0.00 0.00 95 1016.0
20220522115618 56 242 0.0 0.0 0.00 0.00 0.00 95 1016.0
20220522115117 56 218 0.0 1.0 0.00 0.00 0.00 94 1016.0